Location: Putah Creek Observatory
(38.7021°N, 122.3865°W)
Time: 22:19:33
(UTC-07:00)

Cosmos 1464 Rocket - Pass Details

Date: 27 May 2018
Orbit: 952 x 1001 km, 82.9° (Epoch: 20 August)

Event Time Altitude Azimuth Distance (km) Brightness Sun altitude
Exits shadow 21:39:15 - 175° (S) 3,164 6.2 -12.7°
Reaches altitude 10° 21:40:20 10° 173° (S) 2,759 5.9 -12.8°
Maximum altitude 21:46:36 66° 93° (E) 1,087 4.1 -13.8°
Drops below altitude 10° 21:52:56 10° 13° (NNE) 2,778 6.8 -14.6°
Sets 21:55:29 0° 11° (N) 3,729 7.5 -15.0°
